Location: Coopersdale
(40.3556°N, 78.9372°W)
Time: 01:00:41
(UTC+00:00)

Transit 4A - Pass Details

Date: 22 January 2021
Orbit: 867 x 978 km, 66.8° (Epoch: 07 March)

Event Time Altitude Azimuth Distance (km) Brightness Sun altitude
Rises 10:55:30 0° 319° (NW) 3,605 - -18.5°
Reaches altitude 10° 10:58:26 10° 308° (NW) 2,637 - -17.9°
Exits shadow 11:02:35 26° 266° (W) 1,728 8.7 -17.1°
Maximum altitude 11:03:24 27° 253° (WSW) 1,692 8.8 -17.0°
Drops below altitude 10° 11:08:15 10° 198° (SSW) 2,560 10.1 -16.1°
Sets 11:11:04 0° 187° (S) 3,479 11.0 -15.5°
